Bridgeport, CT

2:52 PM EDT on May 28, 2017 (GMT -0400)
Sikorsky Memorial

Weather History for KBDR - December, 2012

Change the Weather History Date:

Wednesday, December 12, 2012

  Actual Average Record
Temperature  
Mean Temperature 38 °F 36 °F  
Max Temperature 44 °F 43 °F 61 °F (2015)
Min Temperature 31 °F 30 °F 3 °F (1988)
Degree Days  
Heating Degree Days 27 29  
Month to date heating degree days 259 320  
Since 1 July heating degree days 1175 1294  
Cooling Degree Days 0 0  
Month to date cooling degree days 0 0  
Year to date cooling degree days 1075 825  
Moisture  
Dew Point 25 °F    
Average Humidity 60    
Maximum Humidity 78    
Minimum Humidity 41    
Precipitation  
Precipitation 0.00 in 0.11 in 2.10 in (2010)
Month to date precipitation 0.98 1.39  
Year to date precipitation 37.65 40.80  
Snow  
Snow 0.00 in 0.10 in 7.00 in (1960)
Month to date snowfall T 1.3  
Since 1 July snowfall 8.4 2.0  
Snow Depth 0.00 in    
Sea Level Pressure  
Sea Level Pressure 30.35 in    
Wind  
Wind Speed 3 mph (NNW)    
Max Wind Speed 12 mph    
Max Gust Speed 15 mph    
Visibility 10 miles    
Events      
T = Trace of Precipitation, MM = Missing Value Source: NWS Daily Summary

Daily Weather History Graph

Daily Weather History Graph

Search for Another Location

Airport or City:

Trip Planner

Search our weather history database for the weather conditions in past years. The results will help you decide how hot, cold, wet, or windy it might be!

Date:

Astronomy

Dec. 12, 2012 Rise Set
Actual Time 7:08 AM EST 4:24 PM EST
Civil Twilight 6:37 AM EST 4:55 PM EST
Nautical Twilight 6:03 AM EST 5:29 PM EST
Astronomical Twilight 5:29 AM EST 6:03 PM EST
Moon 6:09 AM EST (12/12) 3:58 PM EST (12/12)
Length of Visible Light 10h 17m
Length of Day
9h 15m
Waning Crescent, 1% of the Moon is Illuminated
Dec 12
Waning Crescent
Dec 13
New
Dec 20
First Quarter
Dec 28
Full
Jan 4
Last Quarter

Hourly Weather History & Observations

Time (EST) Temp. Windchill Dew Point Humidity Pressure Visibility Wind Dir Wind Speed Gust Speed Precip Events Conditions
12:52 AM 36.0 °F 33.3 °F 25.0 °F 64% 30.21 in 10.0 mi NNW 3.5 mph - N/A   Clear
1:52 AM 35.1 °F - 26.1 °F 70% 30.22 in 10.0 mi Calm Calm - N/A   Clear
2:52 AM 34.0 °F 31.0 °F 25.0 °F 70% 30.25 in 10.0 mi NW 3.5 mph - N/A   Clear
3:52 AM 33.1 °F 30.0 °F 25.0 °F 72% 30.26 in 10.0 mi NNW 3.5 mph - N/A   Clear
4:52 AM 33.1 °F - 25.0 °F 72% 30.30 in 10.0 mi Calm Calm - N/A   Clear
5:52 AM 32.0 °F - 25.0 °F 75% 30.32 in 10.0 mi Calm Calm - N/A   Clear
6:52 AM 32.0 °F - 26.1 °F 79% 30.35 in 10.0 mi Calm Calm - N/A   Clear
7:52 AM 33.1 °F - 27.0 °F 78% 30.36 in 10.0 mi Calm Calm - N/A   Clear
8:52 AM 37.9 °F - 26.1 °F 62% 30.38 in 10.0 mi Calm Calm - N/A   Clear
9:52 AM 41.0 °F - 26.1 °F 55% 30.38 in 10.0 mi Calm Calm - N/A   Clear
10:52 AM 42.1 °F 37.1 °F 23.0 °F 47% 30.38 in 10.0 mi NW 8.1 mph - N/A   Clear
11:52 AM 43.0 °F 37.7 °F 21.9 °F 43% 30.38 in 10.0 mi NW 9.2 mph - N/A   Clear
12:52 PM 43.0 °F 39.5 °F 23.0 °F 45% 30.36 in 10.0 mi NW 5.8 mph - N/A   Clear
1:52 PM 44.1 °F 40.8 °F 23.0 °F 43% 30.35 in 10.0 mi NNW 5.8 mph - N/A   Clear
2:52 PM 43.0 °F 39.5 °F 21.9 °F 43% 30.37 in 10.0 mi WNW 5.8 mph - N/A   Clear
3:52 PM 42.1 °F 40.2 °F 23.0 °F 47% 30.38 in 10.0 mi NNW 3.5 mph - N/A   Clear
4:52 PM 42.1 °F - 23.0 °F 47% 30.38 in 10.0 mi Calm Calm - N/A   Clear
5:52 PM 39.0 °F - 26.1 °F 60% 30.40 in 10.0 mi Calm Calm - N/A   Clear
6:52 PM 37.9 °F - 28.0 °F 68% 30.40 in 10.0 mi Calm Calm - N/A   Clear
7:52 PM 37.9 °F 34.4 °F 26.1 °F 62% 30.40 in 10.0 mi North 4.6 mph - N/A   Clear
8:52 PM 37.0 °F - 27.0 °F 67% 30.43 in 10.0 mi Calm Calm - N/A   Clear
9:52 PM 34.0 °F - 26.1 °F 73% 30.44 in 10.0 mi Calm Calm - N/A   Clear
10:52 PM 35.1 °F 32.2 °F 26.1 °F 70% 30.44 in 10.0 mi North 3.5 mph - N/A   Clear
11:52 PM 35.1 °F 32.2 °F 26.1 °F 70% 30.44 in 10.0 mi North 3.5 mph - N/A   Clear